MOLNIYA 1-88

Last updated on Nov. 13, 2019, 4:21 a.m. UTC

1 23420U 94081A   19316.49678287  .00000034  00000-0  15636-2 0  9994
2 23420  63.9030  58.2291 6038510 296.3977  14.8612  3.34492367215233
UTC
Height (km)
Latitude
Longitude
Inclination
Orbital Period
UTC large
Height (km)
Speed (km/s)
/
Latitude / Longitude
Inclination (degrees)
Orbital Period (minutes)
Azimuth
Elevation
Range (km)
Doppler Factor
iOS Compass Heading
iOS Angle

Next 30 passes for location: Hong Kong

Rise time Rise Azimuth (degrees) Set time Set Azimuth (degrees) Duration Max altitude (degrees)

No matching passes for this satellites